Location: Linton
(52.0943°N, 0.2848°E)
Time: 01:50:59
(UTC+00:00)

Amateur Radio Satellites - All Passes

Search period start: 20 November 2017 01:20
Search period end: 21 November 2017 01:20
Location: Linton, 52.0943°N, 0.2848°E

Satellite Date Start Highest point End Downlink Frequencies (MHz)
Time Altitude Azimuth
EO-79 20 Nov 01:23:59 01:27:22 24° 298° (WNW) 01:30:44 145.935-145.965
NANOSAT C BR1 20 Nov 01:28:26 01:31:49 24° 298° (WNW) 01:35:10 145.865
DX 1 20 Nov 01:37:36 01:41:22 28° 265° (W) 01:45:10 434.975-435.025
MOZHAYETS 4 20 Nov 01:38:09 01:42:31 46° 68° (ENE) 01:46:53
POLYITAN 1 20 Nov 01:39:08 01:42:04 19° 301° (WNW) 01:44:57 437.675
CUBESAT XI-V 20 Nov 01:46:33 01:49:40 18° 57° (ENE) 01:52:48 437.345
nSIGHT-1 20 Nov 02:02:02 02:05:11 54° 198° (SSW) 02:08:19 .
QB50P2 20 Nov 02:03:31 02:04:55 12° 307° (NW) 02:06:21 145.880/145.840
M-CUBED/EXP-1 PRIME 20 Nov 02:08:31 02:12:07 23° 99° (E) 02:15:47 437.505
BEESAT 3 20 Nov 02:10:05 02:11:17 11° 110° (ESE) 02:12:29 437.485
Oscar 19 20 Nov 02:17:22 02:22:29 65° 290° (WNW) 02:27:35 437.125/150
BUGSAT 1 20 Nov 02:18:15 02:21:44 28° 296° (WNW) 02:25:11 437.445
UKube-1 20 Nov 02:24:44 02:27:27 16° 271° (W) 02:30:10 .
AO-7 20 Nov 02:27:03 02:33:55 27° 91° (E) 02:40:44 .
ITAMSAT 1 20 Nov 02:28:04 02:31:03 15° 86° (E) 02:33:59 435.822/435.867
Gurwin Techsat 1B 20 Nov 02:28:49 02:34:09 71° 289° (WNW) 02:39:26 435.225
PCSat 20 Nov 02:29:09 02:34:15 40° 321° (NW) 02:39:23 145.827
BEESAT 20 Nov 02:37:44 02:42:29 66° 257° (WSW) 02:47:15 436.000
ISS 20 Nov 02:40:33 02:43:39 40° 204° (SSW) 02:46:45 437.550
RS-15 20 Nov 02:42:18 02:54:28 78° 43° (NE) 03:05:57 29.354- 29.394
ITUPSAT 1 20 Nov 02:46:20 02:51:03 57° 258° (WSW) 02:55:47 437.325
SO-50 20 Nov 02:59:10 03:02:17 18° 6° (N) 03:05:25 436.795
BEESAT 2 20 Nov 03:15:59 03:18:27 16° 113° (ESE) 03:20:55 435.950
MOZHAYETS 4 20 Nov 03:16:03 03:19:52 26° 267° (W) 03:23:43
CUBESAT XI-V 20 Nov 03:21:54 03:26:31 78° 256° (WSW) 03:31:10 437.345
nSIGHT-1 20 Nov 03:38:50 03:40:56 16° 217° (SW) 03:43:02 .
KKS-1 20 Nov 03:42:07 03:46:27 51° 68° (ENE) 03:50:50 437.445
M-CUBED/EXP-1 PRIME 20 Nov 03:42:22 03:46:43 56° 296° (WNW) 03:51:14 437.505
BEESAT 3 20 Nov 03:44:06 03:48:05 73° 130° (SE) 03:52:07 437.485
DOVE 4 20 Nov 03:46:48 03:50:08 17° 85° (E) 03:53:23 437.250
Oscar 19 20 Nov 03:58:17 04:00:54 14° 311° (NW) 04:03:30 437.125/150
ITAMSAT 1 20 Nov 04:06:03 04:11:19 85° 107° (ESE) 04:16:32 435.822/435.867
Gurwin Techsat 1B 20 Nov 04:10:07 04:13:14 16° 310° (NW) 04:16:20 435.225
STARS 20 Nov 04:11:10 04:15:22 43° 67° (ENE) 04:19:34 437.465
PCSat 20 Nov 04:15:20 04:19:06 19° 346° (NNW) 04:22:54 145.827
ISS 20 Nov 04:18:34 04:19:28 11° 222° (SW) 04:20:21 437.550
AO-7 20 Nov 04:19:17 04:27:40 86° 293° (WNW) 04:36:03 .
YUBILEINY 20 Nov 04:31:34 04:39:04 34° 81° (E) 04:46:38 435.215
SO-50 20 Nov 04:39:54 04:44:03 32° 30° (NNE) 04:48:14 436.795
FO-29 20 Nov 04:46:46 04:49:56 13° 34° (NE) 04:53:12 435.910
BEESAT 2 20 Nov 04:51:35 04:55:38 83° 314° (NW) 04:59:43 435.950
AO-85 20 Nov 04:51:45 04:55:30 46° 124° (SE) 04:59:28 145.980
RS-15 20 Nov 04:55:23 05:06:08 43° 250° (WSW) 05:16:22 29.354- 29.394
XW-2D 20 Nov 05:00:11 05:02:05 13° 88° (E) 05:04:00 145.860 - 145.880
CUBESAT XI-V 20 Nov 05:03:11 05:04:42 11° 276° (W) 05:06:13 437.345
XW-2B 20 Nov 05:14:22 05:17:01 18° 91° (E) 05:19:39 145.730 - 145.750
STRAND 1 20 Nov 05:15:51 05:20:14 29° 60° (ENE) 05:24:37 437.568
M-CUBED/EXP-1 PRIME 20 Nov 05:18:35 05:20:18 12° 315° (NW) 05:22:04 437.505
KKS-1 20 Nov 05:19:41 05:23:16 23° 267° (W) 05:26:53 437.445
BEESAT 3 20 Nov 05:22:38 05:26:01 26° 330° (NNW) 05:29:26 437.485
DOVE 4 20 Nov 05:23:13 05:28:33 87° 288° (WNW) 05:33:38 437.250
CUTE-I 20 Nov 05:27:02 05:31:22 24° 91° (E) 05:35:40 437.470
NUDT-PHONESAT 20 Nov 05:36:05 05:38:57 21° 93° (E) 05:41:48 437.300
LilacSat-2 20 Nov 05:39:16 05:42:47 33° 96° (E) 05:46:17 437.200
XW-2C 20 Nov 05:39:19 05:42:44 31° 96° (E) 05:46:10 145.795 - 145.815
ITAMSAT 1 20 Nov 05:46:27 05:50:11 20° 306° (NW) 05:53:52 435.822/435.867
STARS 20 Nov 05:48:05 05:51:51 27° 266° (W) 05:55:39 437.465
XW-2F 20 Nov 05:51:24 05:54:59 39° 98° (E) 05:58:34 145.980 - 146.000
HO-68 20 Nov 05:59:59 06:05:42 25° 89° (E) 06:11:22 435.675
PCSat 20 Nov 06:00:52 06:04:34 18° 12° (NNE) 06:08:17 145.827
AO-7 20 Nov 06:12:41 06:19:31 30° 316° (NW) 06:26:21 .
SO-50 20 Nov 06:20:16 06:24:51 68° 231° (SW) 06:29:30 436.795
KAITUO 1B 20 Nov 06:21:55 06:25:40 67° 102° (ESE) 06:29:25 145.475/437.950
YUBILEINY 20 Nov 06:26:30 06:35:14 71° 284° (WNW) 06:44:06 435.215
FO-29 20 Nov 06:26:38 06:32:55 40° 58° (ENE) 06:39:49 435.910
BEESAT 2 20 Nov 06:30:41 06:33:56 22° 334° (NNW) 06:37:10 435.950
AO-85 20 Nov 06:32:22 06:36:02 34° 327° (NNW) 06:39:56 145.980
XW-2D 20 Nov 06:32:55 06:36:42 68° 287° (WNW) 06:40:29 145.860 - 145.880
CUTE 1.7 + AOD 2 20 Nov 06:43:44 06:47:47 40° 98° (E) 06:51:49 437.475
XW-2B 20 Nov 06:47:46 06:51:28 50° 289° (WNW) 06:55:09 145.730 - 145.750
UWE-3 20 Nov 06:48:54 06:51:40 17° 89° (E) 06:54:23 435.000/436.395/437.385
STRAND 1 20 Nov 06:54:07 06:59:10 54° 259° (W) 07:04:15 437.568
DOVE 4 20 Nov 07:01:56 07:05:28 19° 306° (NW) 07:08:58 437.250
BEESAT 3 20 Nov 07:02:43 07:04:49 14° 354° (N) 07:06:55 437.485
CUTE-I 20 Nov 07:06:31 07:11:52 64° 291° (WNW) 07:17:09 437.470
NUDT-PHONESAT 20 Nov 07:09:28 07:12:57 39° 291° (WNW) 07:16:25 437.300
XW-2C 20 Nov 07:13:35 07:16:51 28° 295° (WNW) 07:20:09 145.795 - 145.815
LilacSat-2 20 Nov 07:13:43 07:16:58 27° 295° (WNW) 07:20:13 437.200
SEEDS 20 Nov 07:17:07 07:21:18 54° 100° (E) 07:25:28 437.485
XW-2A 20 Nov 07:21:27 07:24:25 28° 96° (E) 07:27:22 145.665 - 145.685
CUBEBUG 2 20 Nov 07:24:24 07:28:35 60° 101° (E) 07:32:41 437.445
XW-2F 20 Nov 07:25:54 07:28:55 23° 296° (WNW) 07:31:56 145.980 - 146.000
AAUSAT CUBESAT 2 20 Nov 07:28:37 07:32:28 34° 96° (E) 07:36:17 437.432
UNISAT 6 20 Nov 07:29:37 07:32:58 21° 59° (ENE) 07:36:16 437.425
AO-73 20 Nov 07:34:10 07:37:30 23° 92° (E) 07:40:50 145.935
TIGRISAT 20 Nov 07:34:21 07:37:43 21° 60° (ENE) 07:41:03 435.000
PCSat 20 Nov 07:44:27 07:49:30 37° 37° (NE) 07:54:32 145.827
HO-68 20 Nov 07:47:03 07:54:17 84° 291° (WNW) 08:01:29 435.675
Oscar 11 20 Nov 07:52:08 07:55:45 25° 93° (E) 07:59:21 .
KAITUO 1B 20 Nov 07:56:59 07:59:13 15° 301° (WNW) 08:01:26 145.475/437.950
SO-50 20 Nov 08:02:41 08:04:30 12° 250° (WSW) 08:06:20 436.795
AO-7 20 Nov 08:06:19 08:09:40 13° 342° (NNW) 08:13:02 .
BEESAT 2 20 Nov 08:10:53 08:13:02 14° 358° (N) 08:15:09 435.950
FO-29 20 Nov 08:11:02 08:17:40 59° 261° (W) 08:25:07 435.910
AO-85 20 Nov 08:14:57 08:17:39 16° 351° (N) 08:20:28 145.980
ZACube-1 20 Nov 08:17:53 08:22:02 67° 102° (ESE) 08:26:09 437.345
CUTE 1.7 + AOD 2 20 Nov 08:19:51 08:23:28 28° 296° (WNW) 08:27:06 437.475
UWE-3 20 Nov 08:24:25 08:28:32 60° 289° (WNW) 08:32:37 435.000/436.395/437.385
YUBILEINY 20 Nov 08:27:32 08:33:57 22° 311° (NW) 08:40:27 435.215
BEESAT 3 20 Nov 08:41:10 08:43:50 17° 18° (NNE) 08:46:29 437.485
CUTE-I 20 Nov 08:48:06 08:50:57 15° 312° (NW) 08:53:47 437.470
SEEDS 20 Nov 08:53:26 08:56:40 21° 299° (WNW) 08:59:53 437.485
XW-2A 20 Nov 08:54:16 08:57:03 24° 294° (WNW) 08:59:49 145.665 - 145.685
PRISM 20 Nov 08:54:27 08:58:23 44° 68° (ENE) 09:02:21 437.425
CUBEBUG 2 20 Nov 09:01:49 09:04:50 19° 301° (WNW) 09:07:47 437.445
AAUSAT CUBESAT 2 20 Nov 09:04:10 09:07:52 31° 295° (WNW) 09:11:34 437.432
UNISAT 6 20 Nov 09:04:46 09:09:18 64° 258° (WSW) 09:13:46 437.425
TIGRISAT 20 Nov 09:09:31 09:14:03 63° 258° (WSW) 09:18:30 435.000
AO-73 20 Nov 09:10:01 09:13:57 43° 291° (WNW) 09:17:53 145.935
EO-79 20 Nov 09:12:39 09:14:14 12° 53° (NE) 09:15:49 145.935-145.965
NANOSAT C BR1 20 Nov 09:16:56 09:18:26 12° 53° (NE) 09:19:55 145.865
POLYITAN 1 20 Nov 09:26:31 09:28:59 15° 56° (ENE) 09:31:29 437.675
PCSat 20 Nov 09:27:51 09:33:12 58° 239° (WSW) 09:38:30 145.827
Oscar 11 20 Nov 09:27:57 09:32:04 43° 292° (WNW) 09:36:10 .
HO-68 20 Nov 09:35:34 09:41:09 25° 312° (NW) 09:46:43 435.675
Max Valier Satellite 20 Nov 09:36:10 09:39:42 43° 99° (E) 09:43:13 145.860
EO-88 20 Nov 09:37:51 09:41:12 33° 97° (E) 09:44:32 145.990 - 145.960
DELFI C3 20 Nov 09:47:17 09:51:19 81° 103° (ESE) 09:55:20 145.870
QB50P2 20 Nov 09:48:29 09:51:57 25° 62° (ENE) 09:55:25 145.880/145.840
BEESAT 2 20 Nov 09:49:10 09:52:11 19° 22° (NNE) 09:55:11 435.950
ZACube-1 20 Nov 09:55:08 09:57:52 17° 301° (WNW) 10:00:37 437.345
AO-85 20 Nov 09:56:31 09:59:37 19° 16° (NNE) 10:02:52 145.980
AO-7 20 Nov 09:56:45 09:58:55 11° 10° (N) 10:01:06 .
AIST 2D 20 Nov 09:57:39 10:01:02 56° 73° (ENE) 10:04:28 435.315
FO-29 20 Nov 10:01:18 10:04:32 13° 284° (WNW) 10:07:53 435.910
LO-87 20 Nov 10:08:17 10:09:26 11° 87° (E) 10:10:36 145.935 - 145.965
BEESAT 3 20 Nov 10:18:23 10:22:16 47° 40° (NE) 10:26:05 437.485
Oscar 19 20 Nov 10:25:24 10:27:27 12° 47° (NE) 10:29:30 437.125/150
ESTCUBE 1 20 Nov 10:28:06 10:31:07 17° 89° (E) 10:34:08 437.505/2401.250
PRISM 20 Nov 10:30:30 10:33:51 23° 267° (W) 10:37:13 437.425
DUCHIFAT 1 20 Nov 10:39:30 10:43:35 50° 69° (ENE) 10:47:41 145.980
Gurwin Techsat 1B 20 Nov 10:39:52 10:42:12 13° 47° (NE) 10:44:33 435.225
EO-79 20 Nov 10:45:01 10:49:15 72° 72° (ENE) 10:53:29 145.935-145.965
NANOSAT C BR1 20 Nov 10:49:10 10:53:22 71° 73° (ENE) 10:57:36 145.865
POLYITAN 1 20 Nov 10:59:57 11:04:13 84° 256° (WSW) 11:08:28 437.675
Max Valier Satellite 20 Nov 11:10:33 11:13:16 20° 298° (WNW) 11:15:59 145.860
EO-88 20 Nov 11:11:42 11:14:44 25° 295° (WNW) 11:17:45 145.990 - 145.960
PCSat 20 Nov 11:14:10 11:15:28 11° 259° (W) 11:16:47 145.827
DELFI C3 20 Nov 11:23:18 11:25:31 15° 303° (WNW) 11:27:44 145.870
QB50P2 20 Nov 11:23:26 11:27:31 45° 261° (W) 11:31:38 145.880/145.840
BEESAT 2 20 Nov 11:26:36 11:30:38 63° 43° (NE) 11:34:38 435.950
M-CUBED/EXP-1 PRIME 20 Nov 11:28:22 11:29:10 11° 44° (NE) 11:30:00 437.505
AIST 2D 20 Nov 11:32:48 11:34:34 13° 271° (W) 11:36:20 435.315
AO-85 20 Nov 11:36:42 11:41:01 45° 38° (NE) 11:45:41 145.980
BUGSAT 1 20 Nov 11:37:07 11:41:13 54° 70° (ENE) 11:45:17 437.445
LO-87 20 Nov 11:39:45 11:43:19 72° 286° (WNW) 11:46:50 145.935 - 145.965
AO-7 20 Nov 11:42:47 11:48:40 22° 37° (NE) 11:54:35 .
BEESAT 3 20 Nov 11:56:14 11:59:39 28° 241° (WSW) 12:03:01 437.485
Oscar 19 20 Nov 12:00:45 12:05:44 56° 68° (ENE) 12:10:46 437.125/150
SPROUT 20 Nov 12:00:56 12:04:49 34° 96° (E) 12:08:41 437.525
ESTCUBE 1 20 Nov 12:03:53 12:08:25 70° 289° (WNW) 12:12:55 437.505/2401.250
Gurwin Techsat 1B 20 Nov 12:15:55 12:21:06 56° 68° (ENE) 12:26:20 435.225
DUCHIFAT 1 20 Nov 12:16:18 12:19:31 21° 268° (W) 12:22:45 145.980
EO-79 20 Nov 12:22:58 12:25:30 15° 272° (W) 12:28:02 145.935-145.965
NANOSAT C BR1 20 Nov 12:27:01 12:29:34 15° 271° (W) 12:32:07 145.865
VELOX 1 20 Nov 12:29:51 12:34:07 42° 98° (E) 12:38:21 145.980
O/OREOS (USA 219) 20 Nov 12:31:53 12:34:19 14° 99° (E) 12:36:47 437.305
POLYITAN 1 20 Nov 12:39:26 12:40:41 11° 275° (W) 12:41:56 437.675
M-CUBED/EXP-1 PRIME 20 Nov 12:59:07 13:02:42 60° 64° (ENE) 13:06:36 437.505
BEESAT 2 20 Nov 13:04:56 13:08:01 21° 244° (WSW) 13:11:03 435.950
BUGSAT 1 20 Nov 13:13:47 13:16:52 20° 268° (W) 13:19:56 437.445
AO-85 20 Nov 13:17:09 13:21:27 40° 237° (WSW) 13:26:04 145.980
DX 1 20 Nov 13:19:17 13:23:18 33° 97° (E) 13:27:17 434.975-435.025
AO-7 20 Nov 13:31:52 13:39:58 61° 60° (ENE) 13:48:07 .
SPROUT 20 Nov 13:36:54 13:40:41 32° 295° (WNW) 13:44:27 437.525
Oscar 19 20 Nov 13:41:11 13:45:25 26° 268° (W) 13:49:39 437.125/150
ESTCUBE 1 20 Nov 13:42:27 13:44:26 13° 308° (NW) 13:46:24 437.505/2401.250
50 SAT 20 Nov 13:48:04 13:51:19 77° 104° (ESE) 13:54:32 437.505
ITAMSAT 1 20 Nov 13:50:45 13:55:38 41° 64° (ENE) 14:00:31 435.822/435.867
Gurwin Techsat 1B 20 Nov 13:56:55 14:01:23 27° 268° (W) 14:05:54 435.225
UKube-1 20 Nov 14:03:44 14:08:02 57° 102° (ESE) 14:12:17 .
VELOX 1 20 Nov 14:06:35 14:10:25 29° 298° (WNW) 14:14:14 145.980
O/OREOS (USA 219) 20 Nov 14:08:26 14:13:03 89° 310° (NW) 14:17:42 437.305
BEESAT 20 Nov 14:32:36 14:36:12 21° 91° (E) 14:39:46 436.000
YUBILEINY 20 Nov 14:33:05 14:40:06 25° 53° (NE) 14:47:04 435.215
M-CUBED/EXP-1 PRIME 20 Nov 14:35:21 14:37:35 15° 266° (W) 14:39:54 437.505
ITUPSAT 1 20 Nov 14:41:20 14:45:13 24° 93° (E) 14:49:04 437.325
HO-68 20 Nov 14:52:46 14:55:14 12° 31° (NNE) 14:57:41 435.675
DX 1 20 Nov 14:55:30 14:59:29 34° 296° (WNW) 15:03:26 434.975-435.025
DOVE 4 20 Nov 14:56:43 15:01:08 30° 61° (ENE) 15:05:42 437.250
MOZHAYETS 4 20 Nov 15:04:07 15:08:34 49° 99° (E) 15:13:00
CUBESAT XI-V 20 Nov 15:13:20 15:16:36 18° 89° (E) 15:19:52 437.345
CUTE-I 20 Nov 15:17:24 15:20:18 15° 49° (NE) 15:23:13 437.470
50 SAT 20 Nov 15:22:06 15:22:54 11° 302° (WNW) 15:23:43 437.505
AO-7 20 Nov 15:25:25 15:33:07 41° 262° (W) 15:40:53 .
ITAMSAT 1 20 Nov 15:30:19 15:35:09 37° 263° (W) 15:40:01 435.822/435.867
UKube-1 20 Nov 15:40:24 15:43:43 22° 301° (WNW) 15:47:00 .
XW-2D 20 Nov 15:46:42 15:48:59 16° 60° (ENE) 15:51:18 145.860 - 145.880
O/OREOS (USA 219) 20 Nov 15:49:48 15:53:09 19° 320° (NW) 15:56:30 437.305
XW-2B 20 Nov 16:00:54 16:03:40 20° 62° (ENE) 16:06:28 145.730 - 145.750
BEESAT 20 Nov 16:09:40 16:14:23 62° 290° (WNW) 16:19:04 436.000
NO-84 20 Nov 16:10:33 16:14:13 44° 145° (SE) 16:18:08 435.350 FM
ITUPSAT 1 20 Nov 16:18:41 16:23:20 53° 292° (WNW) 16:27:58 437.325
NUDT-PHONESAT 20 Nov 16:20:20 16:23:12 22° 64° (ENE) 16:26:05 437.300
XW-2C 20 Nov 16:25:39 16:29:03 34° 68° (ENE) 16:32:29 145.795 - 145.815
LilacSat-2 20 Nov 16:26:14 16:29:43 37° 68° (ENE) 16:33:14 437.200
YUBILEINY 20 Nov 16:29:34 16:38:29 81° 78° (ENE) 16:47:21 435.215
DOVE 4 20 Nov 16:33:36 16:38:33 52° 261° (W) 16:43:44 437.250
HO-68 20 Nov 16:34:37 16:40:58 35° 54° (NE) 16:47:19 435.675
XW-2F 20 Nov 16:37:12 16:40:42 42° 69° (ENE) 16:44:16 145.980 - 146.000
SEEDS 20 Nov 16:41:18 16:42:56 12° 54° (NE) 16:44:33 437.485
MOZHAYETS 4 20 Nov 16:41:43 16:45:30 26° 299° (WNW) 16:49:15
CUBESAT XI-V 20 Nov 16:49:47 16:54:26 69° 289° (WNW) 16:59:07 437.345
CUBEBUG 2 20 Nov 16:52:57 16:55:45 16° 57° (ENE) 16:58:28 437.445
CUTE-I 20 Nov 16:54:06 16:59:24 65° 70° (ENE) 17:04:46 437.470
KKS-1 20 Nov 17:03:37 17:07:56 45° 99° (E) 17:12:13 437.445
KAITUO 1B 20 Nov 17:06:42 17:10:21 69° 74° (ENE) 17:14:04 145.475/437.950
RS-15 20 Nov 17:15:13 17:24:15 25° 99° (E) 17:33:12 29.354- 29.394
XW-2D 20 Nov 17:19:02 17:22:45 63° 259° (W) 17:26:29 145.860 - 145.880
STARS 20 Nov 17:30:49 17:34:54 36° 97° (E) 17:38:57 437.465
XW-2B 20 Nov 17:34:00 17:37:36 45° 261° (W) 17:41:14 145.730 - 145.750
CUTE 1.7 + AOD 2 20 Nov 17:41:23 17:45:29 56° 71° (ENE) 17:49:39 437.475
ZACube-1 20 Nov 17:44:36 17:47:11 16° 58° (ENE) 17:49:45 437.345
NO-84 20 Nov 17:47:31 17:51:31 69° 346° (NNW) 17:55:42 435.350 FM
BEESAT 20 Nov 17:49:20 17:51:15 12° 310° (NW) 17:53:11 436.000
UWE-3 20 Nov 17:50:37 17:54:25 29° 64° (ENE) 17:58:09 435.000/436.395/437.385
NUDT-PHONESAT 20 Nov 17:53:27 17:56:52 37° 262° (W) 18:00:19 437.300
XW-2A 20 Nov 17:57:47 18:00:31 24° 66° (ENE) 18:03:17 145.665 - 145.685
ITUPSAT 1 20 Nov 17:58:56 18:00:10 11° 312° (NW) 18:01:23 437.325
XW-2C 20 Nov 18:00:13 18:03:19 24° 266° (W) 18:06:27 145.795 - 145.815
LilacSat-2 20 Nov 18:01:05 18:04:07 23° 267° (W) 18:07:10 437.200
XW-2F 20 Nov 18:12:14 18:15:01 20° 268° (W) 18:17:50 145.980 - 146.000
SEEDS 20 Nov 18:13:43 18:17:53 75° 73° (ENE) 18:22:05 437.485
HO-68 20 Nov 18:21:09 18:28:19 67° 256° (WSW) 18:35:32 435.675
AAUSAT CUBESAT 2 20 Nov 18:23:37 18:27:34 45° 69° (ENE) 18:31:33 437.432
CUBEBUG 2 20 Nov 18:27:13 18:31:49 85° 256° (WSW) 18:36:16 437.445
YUBILEINY 20 Nov 18:27:14 18:34:23 29° 282° (WNW) 18:41:32 435.215
CUBESAT XI-V 20 Nov 18:28:53 18:31:00 13° 308° (NW) 18:33:07 437.345
AO-73 20 Nov 18:34:34 18:38:29 36° 67° (ENE) 18:42:21 145.935
CUTE-I 20 Nov 18:35:39 18:39:55 24° 269° (W) 18:44:14 437.470
KKS-1 20 Nov 18:40:31 18:44:18 27° 299° (WNW) 18:48:04 437.445
KAITUO 1B 20 Nov 18:43:10 18:44:48 12° 272° (W) 18:46:26 145.475/437.950
Oscar 11 20 Nov 18:51:58 18:55:56 38° 67° (ENE) 18:59:56 .
STRAND 1 20 Nov 18:58:48 19:03:30 35° 96° (E) 19:08:08 437.568
DELFI C3 20 Nov 19:05:05 19:07:09 14° 57° (ENE) 19:09:13 145.870
STARS 20 Nov 19:07:17 19:11:11 32° 297° (WNW) 19:15:05 437.465
FO-29 20 Nov 19:14:37 19:20:43 24° 84° (E) 19:26:37 435.910
ZACube-1 20 Nov 19:18:38 19:22:58 80° 257° (WSW) 19:27:13 437.345
CUTE 1.7 + AOD 2 20 Nov 19:18:41 19:21:41 19° 270° (W) 19:24:42 437.475
RS-15 20 Nov 19:22:27 19:34:42 74° 124° (SE) 19:46:48 29.354- 29.394
NO-84 20 Nov 19:25:08 19:29:13 59° 6° (N) 19:33:26 435.350 FM
UWE-3 20 Nov 19:26:36 19:30:46 39° 263° (W) 19:34:52 435.000/436.395/437.385
XW-2A 20 Nov 19:30:15 19:33:08 27° 264° (W) 19:36:04 145.665 - 145.685
SEEDS 20 Nov 19:51:49 19:54:05 14° 273° (W) 19:56:23 437.485
AAUSAT CUBESAT 2 20 Nov 19:59:57 20:03:14 22° 268° (W) 20:06:32 437.432
CUBEBUG 2 20 Nov 20:07:11 20:09:05 12° 274° (W) 20:10:58 437.445
AO-73 20 Nov 20:11:02 20:14:47 29° 265° (W) 20:18:30 145.935
HO-68 20 Nov 20:13:30 20:17:28 15° 277° (W) 20:21:28 435.675
Max Valier Satellite 20 Nov 20:19:54 20:23:24 44° 70° (ENE) 20:26:54 145.860
EO-88 20 Nov 20:20:28 20:23:45 33° 68° (ENE) 20:27:04 145.990 - 145.960
Oscar 11 20 Nov 20:28:26 20:32:10 28° 266° (W) 20:35:55 .
DELFI C3 20 Nov 20:37:20 20:41:18 85° 252° (WSW) 20:45:21 145.870
STRAND 1 20 Nov 20:37:57 20:42:47 42° 295° (WNW) 20:47:33 437.568
LO-87 20 Nov 20:49:27 20:51:07 13° 58° (ENE) 20:52:47 145.935 - 145.965
UNISAT 6 20 Nov 20:51:29 20:54:25 18° 89° (E) 20:57:19 437.425
O/OREOS (USA 219) 20 Nov 20:55:08 20:58:06 17° 37° (NE) 21:01:02 437.305
TIGRISAT 20 Nov 20:56:03 20:59:01 18° 90° (E) 21:01:56 435.000
FO-29 20 Nov 20:58:50 21:06:47 86° 106° (ESE) 21:14:26 435.910
ZACube-1 20 Nov 20:59:05 20:59:57 11° 275° (W) 21:00:50 437.345
ISS 20 Nov 21:01:12 21:02:47 13° 140° (SE) 21:04:24 437.550
NO-84 20 Nov 21:02:33 21:06:46 73° 207° (SSW) 21:11:02 435.350 FM
ESTCUBE 1 20 Nov 21:32:33 21:36:28 31° 63° (ENE) 21:40:25 437.505/2401.250
RS-15 20 Nov 21:35:53 21:48:01 57° 333° (NNW) 21:59:52 29.354- 29.394
nSIGHT-1 20 Nov 21:54:17 21:57:10 31° 152° (SSE) 22:00:04 .
EO-88 20 Nov 21:54:30 21:57:28 24° 266° (W) 22:00:28 145.990 - 145.960
Max Valier Satellite 20 Nov 21:54:52 21:57:27 18° 269° (W) 22:00:02 145.860
VELOX 1 20 Nov 21:58:39 22:00:46 13° 53° (NE) 22:02:52 145.980
PRISM 20 Nov 22:05:04 22:08:50 32° 96° (E) 22:12:35 437.425
DELFI C3 20 Nov 22:16:11 22:16:43 10° 275° (W) 22:17:16 145.870
SO-50 20 Nov 22:19:24 22:23:46 55° 126° (SE) 22:28:13 436.795
LO-87 20 Nov 22:20:23 22:24:01 77° 257° (WSW) 22:27:38 145.935 - 145.965
UNISAT 6 20 Nov 22:27:18 22:31:34 61° 289° (WNW) 22:35:46 437.425
TIGRISAT 20 Nov 22:31:53 22:36:08 60° 288° (WNW) 22:40:18 435.000
O/OREOS (USA 219) 20 Nov 22:33:46 22:38:22 72° 59° (ENE) 22:42:54 437.305
ISS 20 Nov 22:35:32 22:38:41 46° 158° (SSE) 22:41:51 437.550
NO-84 20 Nov 22:40:26 22:43:40 21° 226° (SW) 22:46:52 435.350 FM
POLYITAN 1 20 Nov 22:41:15 22:42:23 11° 85° (E) 22:43:31 437.675
FO-29 20 Nov 22:44:26 22:51:01 31° 307° (NW) 22:57:29 435.910
DX 1 20 Nov 22:47:39 22:48:44 11° 50° (NE) 22:49:49 434.975-435.025
AIST 2D 20 Nov 22:49:54 22:53:06 31° 96° (E) 22:56:17 435.315
SPROUT 20 Nov 22:59:03 23:03:13 52° 70° (ENE) 23:07:24 437.525
QB50P2 20 Nov 23:02:55 23:06:01 20° 91° (E) 23:09:07 145.880/145.840
ESTCUBE 1 20 Nov 23:08:59 23:13:11 39° 263° (W) 23:17:26 437.505/2401.250
UKube-1 20 Nov 23:29:23 23:32:02 16° 55° (NE) 23:34:42 .
nSIGHT-1 20 Nov 23:29:58 23:33:11 77° 171° (S) 23:36:23 .
VELOX 1 20 Nov 23:32:01 23:36:27 75° 72° (ENE) 23:40:56 145.980
PRISM 20 Nov 23:40:21 23:44:06 32° 296° (WNW) 23:47:49 437.425
RS-15 20 Nov 23:51:42 00:03:22 46° 5° (N) 00:14:34 29.354- 29.394
DUCHIFAT 1 20 Nov 23:53:08 23:57:07 41° 98° (E) 00:01:04 145.980
EO-79 20 Nov 23:59:30 00:03:41 60° 101° (ESE) 00:07:50 145.935-145.965
SO-50 21 Nov 00:00:19 00:04:27 35° 328° (NNW) 00:08:40 436.795
NANOSAT C BR1 21 Nov 00:03:13 00:07:23 59° 101° (E) 00:11:30 145.865
UNISAT 6 21 Nov 00:06:35 00:07:24 10° 309° (NW) 00:08:13 437.425
Oscar 19 21 Nov 00:08:14 00:10:25 13° 84° (E) 00:12:36 437.125/150
TIGRISAT 21 Nov 00:11:20 00:11:56 10° 309° (NW) 00:12:32 435.000
ISS 21 Nov 00:11:46 00:15:03 85° 180° (S) 00:18:20 437.550
O/OREOS (USA 219) 21 Nov 00:14:13 00:17:15 18° 259° (W) 00:20:14 437.305
POLYITAN 1 21 Nov 00:14:38 00:18:52 84° 105° (ESE) 00:23:03 437.675
PCSat 21 Nov 00:14:50 00:19:52 40° 116° (ESE) 00:24:55 145.827
ITUPSAT 1 21 Nov 00:19:41 00:20:54 11° 48° (NE) 00:22:06 437.325
DX 1 21 Nov 00:19:44 00:24:02 59° 70° (ENE) 00:28:22 434.975-435.025
50 SAT 21 Nov 00:19:58 00:23:10 60° 72° (ENE) 00:26:23 437.505
AIST 2D 21 Nov 00:23:16 00:26:10 24° 295° (WNW) 00:29:03 435.315
Gurwin Techsat 1B 21 Nov 00:27:43 00:30:30 14° 85° (E) 00:33:16 435.225
FO-29 21 Nov 00:31:52 00:33:40 11° 330° (NNW) 00:35:29 435.910
SPROUT 21 Nov 00:36:09 00:39:25 21° 269° (W) 00:42:41 437.525
MOZHAYETS 4 21 Nov 00:36:30 00:39:11 16° 55° (NE) 00:41:53
QB50P2 21 Nov 00:38:01 00:42:08 53° 290° (WNW) 00:46:13 145.880/145.840
BUGSAT 1 21 Nov 00:48:23 00:52:14 40° 98° (E) 00:56:02 437.445
UKube-1 21 Nov 01:03:09 01:07:29 83° 253° (WSW) 01:11:52 .
nSIGHT-1 21 Nov 01:06:10 01:09:23 71° 191° (SSW) 01:12:34 .
VELOX 1 21 Nov 01:10:41 01:13:25 16° 272° (W) 01:16:11 145.980
